sat.trackr.live / text

‹ back to catalog

STARLINK-30894

NORAD 58375 · 2023-178B

PAYLOAD ACTIVE UNKNOWN

§ Identity

Operator
Country
US
Launch date
2023-11-20
Launch site
AFWTR
Launch vehicle
Mass (kg)
RCS (m²)

Purposes: comms

External: N2YO · Heavens-Above · Gunter

§ Orbital elements

Epoch: 2026-09-20T03:45:26.414208Z

Period
93.85 min
Inclination
53.1597°
Eccentricity
0.0001038
Mean motion
15.34391810 rev/d
Perigee alt
462.0 km
Apogee alt
463.4 km
Semi-major
6,840.9 km
B*
2.8717e-5
RAAN
173.6543°
Arg perigee
74.7985°
Mean anomaly
285.3132°
Rev number
15,965

§ Raw data

STARLINK-308941 58375U 23178B   26263.15655572  .00000594  00000+0  28717-4 0  99902 58375  53.1597 173.6543 0001038  74.7985 285.3132 15.34391810159656

JSON: /api/v1/satellites/58375 · /tle

For live sub-satellite position, see the globe view (requires WebGL).

§ Visibility from observer

Set your observer location to see the next 7 days of passes ≥ 10°. The values pass through the URL so the page stays shareable.

No JS? Fill the form by hand. The geolocation button needs JavaScript.